SL-14 R/B

Satellite information

Favourite Embed

Satellite Type and Status

ROCKET BODYIN ORBIT

Key statistics

Satellite SL-14 R/B at a glance.

Uptime

14149

Days in orbit

Revolutions

≈ 14.9

Per day

Orbit

LEO

Low Earth Orbit

Inclination

82.5

Latest

Satellite identification and parameters

Extended collection of information and parameters for SL-14 R/B.

Object identification

Identified? True

Debris? False

Object name: SL-14 R/B

International designator: 1986-097B

Object number (NORAD): 17192

Object ID (CCSDS): 17192

Country: COMMONWEALTH OF INDEPENDENT STATES (CIS)

Current information (Y/N): Y

RCS size: LARGE

Orbital parameters

Period: 96.927 minutes

Inclination: 82.5079 deg

SMA: 6989.672 km

Apoapsis: 621.883 km

Periapsis: 601.19 km

RAAN: 317.7742 deg

Eccentricy: 0.00148025

Argument of periapsis: 282.8664 deg

Mean anomaly: 136.7431 deg

Mean motion: 14.85653729 rev/day

Mean motion (dot): 0.00000713 rev/day2

B* drag term: 0.000079468948 1/REarth

Two-line elements (TLE)

Creation date: Sept. 4, 2025, 10:13 a.m.

Reference frame: TEME

Reference center: EARTH

Epoch: Sept. 4, 2025, 5:54 a.m. UTC

TLE line 0: 0 SL-14 R/B

TLE line 1: 1 17192U 86097B 25247.24650421 .00000713 00000-0 79469-4 0 9994

TLE line 2: 2 17192 82.5079 317.7742 0014803 282.8664 136.7431 14.85653729 72662

Live tracking on map

Real-time ground track for satellite SL-14 R/B.

In-orbit conjunctions

A list of the most updated potential collisions computed for object SL-14 R/B.

Target Orbit TCA Probability of collision Miss distance Type
CZ-6A DEB SSO 2025-06-01 06:45:43 0.001838084 28.0 (m) DEBRIS
CZ-6A DEB LEO 2025-04-23 18:53:52 0.0003625193 175.0 (m) DEBRIS
FENGYUN 1C DEB SSO 2024-06-12 02:39:21 0.0002798824 146.0 (m) DEBRIS

Associated space launch

Tselina-R series ELINT satellite

SL-14 R/B was lifted into orbit during the mission ‘Tsiklon-3 | Tselina-R 1’, on board a Tsiklon-3 space rocket.

The launch took place on Dec. 10, 1986, 7:30 a.m. from 32/2.

For more information about the launch, click the button.

Launch to space Tsiklon-3 | Tselina-R 1
Tsiklon-3 | Tselina-R 1

Agency: N/A

Status: Launch Successful

Launch date: Dec. 10, 1986, 7:30 a.m. UTC

Rocket: Tsiklon-3

Launch pad: 32/2

Location: Plesetsk Cosmodrome, Russian Federation

...

Latest news about this satellite

There are no fresh news available about this satellite. Check back as we update our databases every day.


Newsletter sign-up

Weekly statistics, charts and insights to help you stay on top of the space industry.